• Em Portugal
  • Lista de países
  • Para 7 dias
  • Temperatura da água
  • Mapas de satélite
  • Mapa do tempo
  • Widgets de tempo
  • user-avatar
    Iniciar Sessão

    Previsão horária em Galway

    Hoje, 23 Setembro, Sábado

    Tempo Temperatura Precipitação Vento Pressão Humidade
    00:00 +11°C° 0 mm 6 m/s 757 mmHg 91%
    01:00 +12°C° 0 mm 7 m/s 756 mmHg 91%
    02:00 +14°C° 0 mm 7 m/s 756 mmHg 91%
    03:00 +14°C° 0 mm 7 m/s 755 mmHg 89%
    04:00 +15°C° 0 mm 8 m/s 755 mmHg 87%
    05:00 +15°C° 0 mm 8 m/s 754 mmHg 85%
    06:00 +15°C° 0,1 mm 9 m/s 755 mmHg 85%
    07:00 +16°C° 0,1 mm 9 m/s 755 mmHg 85%
    08:00 +16°C° 0,1 mm 9 m/s 755 mmHg 85%
    09:00 +16°C° 0,2 mm 10 m/s 754 mmHg 82%
    10:00 +16°C° 0,2 mm 10 m/s 754 mmHg 80%
    11:00 +16°C° 0,2 mm 10 m/s 754 mmHg 78%
    12:00 +16°C° 0,4 mm 10 m/s 754 mmHg 81%
    13:00 +16°C° 0,4 mm 10 m/s 754 mmHg 84%
    14:00 +15°C° 0,4 mm 9 m/s 754 mmHg 86%
    15:00 +15°C° 0,5 mm 9 m/s 754 mmHg 89%
    16:00 +15°C° 0,5 mm 8 m/s 754 mmHg 91%
    17:00 +15°C° 0,5 mm 7 m/s 754 mmHg 93%
    18:00 +15°C° 0,3 mm 7 m/s 754 mmHg 93%
    19:00 +15°C° 0,3 mm 6 m/s 755 mmHg 93%
    20:00 +15°C° 0,3 mm 5 m/s 755 mmHg 94%
    21:00 +14°C° 0,1 mm 5 m/s 756 mmHg 94%
    22:00 +13°C° 0,1 mm 4 m/s 756 mmHg 95%
    23:00 +13°C° 0,1 mm 4 m/s 756 mmHg 96%

    Amanhã, 24 Setembro, Domingo

    Tempo Temperatura Precipitação Vento Pressão Humidade
    00:00 +12°C° 0 mm 4 m/s 757 mmHg 96%
    01:00 +12°C° 0 mm 3 m/s 757 mmHg 95%
    02:00 +11°C° 0 mm 3 m/s 757 mmHg 95%
    03:00 +11°C° 0 mm 3 m/s 758 mmHg 95%
    04:00 +11°C° 0 mm 3 m/s 758 mmHg 94%
    05:00 +11°C° 0 mm 3 m/s 759 mmHg 94%
    06:00 +12°C° 0 mm 3 m/s 759 mmHg 93%
    07:00 +12°C° 0 mm 3 m/s 760 mmHg 91%
    08:00 +13°C° 0 mm 3 m/s 760 mmHg 89%
    09:00 +14°C° 0 mm 3 m/s 761 mmHg 86%
    10:00 +14°C° 0 mm 4 m/s 761 mmHg 82%
    11:00 +15°C° 0 mm 4 m/s 762 mmHg 78%
    12:00 +16°C° 0,1 mm 3 m/s 762 mmHg 76%
    13:00 +17°C° 0,1 mm 3 m/s 762 mmHg 74%
    14:00 +17°C° 0,1 mm 3 m/s 762 mmHg 71%
    15:00 +16°C° 0,1 mm 2 m/s 762 mmHg 76%
    16:00 +15°C° 0,1 mm 2 m/s 763 mmHg 81%
    17:00 +14°C° 0,1 mm 1 m/s 763 mmHg 85%
    18:00 +13°C° 0 mm 1 m/s 764 mmHg 87%
    19:00 +12°C° 0 mm 1 m/s 764 mmHg 90%
    20:00 +11°C° 0 mm 1 m/s 765 mmHg 92%
    21:00 +11°C° 0 mm 1 m/s 765 mmHg 92%
    22:00 +11°C° 0 mm 1 m/s 765 mmHg 92%
    23:00 +10°C° 0 mm 1 m/s 765 mmHg 93%

    Depois de amanhã, 25 Setembro, Segunda-feira

    Tempo Temperatura Precipitação Vento Pressão Humidade
    00:00 +10°C° 0 mm 1 m/s 765 mmHg 93%
    01:00 +10°C° 0 mm 1 m/s 765 mmHg 93%
    02:00 +10°C° 0 mm 1 m/s 765 mmHg 93%
    03:00 +9°C° 0 mm 1 m/s 765 mmHg 94%
    04:00 +9°C° 0 mm 1 m/s 765 mmHg 94%
    05:00 +9°C° 0 mm 1 m/s 765 mmHg 94%
    06:00 +10°C° 0 mm 1 m/s 766 mmHg 92%
    07:00 +12°C° 0 mm 2 m/s 766 mmHg 89%
    08:00 +13°C° 0 mm 2 m/s 766 mmHg 87%
    09:00 +14°C° 0 mm 2 m/s 766 mmHg 82%
    10:00 +16°C° 0 mm 2 m/s 766 mmHg 77%
    11:00 +17°C° 0 mm 3 m/s 766 mmHg 72%
    12:00 +17°C° 0 mm 3 m/s 766 mmHg 71%
    13:00 +18°C° 0 mm 3 m/s 766 mmHg 70%
    14:00 +18°C° 0 mm 3 m/s 765 mmHg 68%
    15:00 +17°C° 0 mm 2 m/s 765 mmHg 73%
    16:00 +16°C° 0 mm 2 m/s 766 mmHg 78%
    17:00 +15°C° 0 mm 2 m/s 766 mmHg 83%
    18:00 +14°C° 0 mm 2 m/s 766 mmHg 86%
    19:00 +14°C° 0 mm 2 m/s 766 mmHg 89%
    20:00 +13°C° 0 mm 2 m/s 766 mmHg 92%
    21:00 +11°C° 0 mm 3 m/s 766 mmHg 93%
    22:00 +11°C° 0 mm 3 m/s 766 mmHg 94%
    23:00 +11°C° 0 mm 3 m/s 766 mmHg 95%

    26 Setembro, Terça-feira

    Tempo Temperatura Precipitação Vento Pressão Humidade
    00:00 +10°C° 0 mm 3 m/s 765 mmHg 95%
    01:00 +10°C° 0 mm 3 m/s 765 mmHg 95%
    02:00 +10°C° 0 mm 4 m/s 765 mmHg 94%
    03:00 +10°C° 0 mm 4 m/s 765 mmHg 94%
    04:00 +10°C° 0 mm 4 m/s 764 mmHg 94%
    05:00 +8°C° 0 mm 4 m/s 764 mmHg 94%
    06:00 +11°C° 0 mm 4 m/s 764 mmHg 91%
    07:00 +12°C° 0 mm 4 m/s 764 mmHg 87%
    08:00 +13°C° 0 mm 5 m/s 764 mmHg 84%
    09:00 +14°C° 0 mm 5 m/s 764 mmHg 80%
    10:00 +15°C° 0 mm 5 m/s 764 mmHg 77%
    11:00 +16°C° 0 mm 6 m/s 763 mmHg 74%
    12:00 +17°C° 0 mm 6 m/s 763 mmHg 74%
    13:00 +17°C° 0 mm 6 m/s 763 mmHg 74%
    14:00 +17°C° 0 mm 6 m/s 763 mmHg 74%
    15:00 +16°C° 0 mm 6 m/s 763 mmHg 77%
    16:00 +15°C° 0 mm 5 m/s 762 mmHg 80%
    17:00 +15°C° 0 mm 5 m/s 762 mmHg 82%
    18:00 +14°C° 0 mm 5 m/s 762 mmHg 84%
    19:00 +13°C° 0 mm 5 m/s 762 mmHg 85%
    20:00 +11°C° 0 mm 6 m/s 762 mmHg 87%
    21:00 +11°C° 0 mm 6 m/s 762 mmHg 86%
    22:00 +11°C° 0 mm 6 m/s 761 mmHg 84%
    23:00 +11°C° 0 mm 6 m/s 761 mmHg 83%

    27 Setembro, Quarta-feira

    Tempo Temperatura Precipitação Vento Pressão Humidade
    00:00 +11°C° 0 mm 6 m/s 761 mmHg 82%
    01:00 +11°C° 0 mm 7 m/s 760 mmHg 82%
    02:00 +11°C° 0 mm 7 m/s 759 mmHg 82%
    03:00 +11°C° 0 mm 7 m/s 759 mmHg 82%
    04:00 +12°C° 0 mm 8 m/s 759 mmHg 82%
    05:00 +12°C° 0 mm 8 m/s 759 mmHg 82%
    06:00 +12°C° 0 mm 8 m/s 758 mmHg 80%
    07:00 +13°C° 0 mm 9 m/s 758 mmHg 79%
    08:00 +15°C° 0 mm 9 m/s 758 mmHg 78%
    09:00 +16°C° 0 mm 9 m/s 757 mmHg 76%
    10:00 +16°C° 0 mm 10 m/s 757 mmHg 74%
    11:00 +17°C° 0 mm 10 m/s 757 mmHg 72%
    12:00 +17°C° 0,6 mm 10 m/s 756 mmHg 75%
    13:00 +16°C° 0,6 mm 10 m/s 756 mmHg 78%
    14:00 +16°C° 0,6 mm 10 m/s 755 mmHg 81%
    15:00 +15°C° 2 mm 9 m/s 755 mmHg 85%
    16:00 +15°C° 2 mm 8 m/s 755 mmHg 89%
    17:00 +15°C° 2 mm 8 m/s 755 mmHg 93%
    18:00 +15°C° 1 mm 6 m/s 755 mmHg 94%
    19:00 +15°C° 1 mm 5 m/s 756 mmHg 94%
    20:00 +14°C° 1 mm 4 m/s 756 mmHg 95%
    21:00 +14°C° 0,1 mm 4 m/s 756 mmHg 95%
    22:00 +13°C° 0,1 mm 4 m/s 757 mmHg 95%
    23:00 +12°C° 0,1 mm 3 m/s 757 mmHg 95%

    28 Setembro, Quinta-feira

    Tempo Temperatura Precipitação Vento Pressão Humidade
    00:00 +11°C° 0 mm 3 m/s 757 mmHg 95%
    01:00 +11°C° 0 mm 3 m/s 758 mmHg 95%
    02:00 +10°C° 0 mm 3 m/s 758 mmHg 95%
    03:00 +10°C° 0 mm 3 m/s 758 mmHg 95%
    04:00 +10°C° 0 mm 3 m/s 759 mmHg 94%
    05:00 +10°C° 0 mm 3 m/s 759 mmHg 94%
    06:00 +11°C° 0 mm 3 m/s 760 mmHg 91%
    07:00 +12°C° 0 mm 3 m/s 760 mmHg 88%
    08:00 +13°C° 0 mm 4 m/s 761 mmHg 85%
    09:00 +13°C° 0 mm 4 m/s 761 mmHg 79%
    10:00 +14°C° 0 mm 4 m/s 762 mmHg 74%
    11:00 +15°C° 0 mm 4 m/s 762 mmHg 68%
    12:00 +15°C° 0 mm 4 m/s 763 mmHg 67%
    13:00 +15°C° 0 mm 4 m/s 763 mmHg 66%
    14:00 +15°C° 0 mm 4 m/s 763 mmHg 66%
    15:00 +14°C° 0 mm 3 m/s 764 mmHg 71%
    16:00 +12°C° 0 mm 3 m/s 764 mmHg 76%
    17:00 +12°C° 0 mm 2 m/s 764 mmHg 81%
    18:00 +10°C° 0,1 mm 2 m/s 765 mmHg 84%
    19:00 +10°C° 0,1 mm 2 m/s 765 mmHg 87%
    20:00 +9°C° 0,1 mm 2 m/s 766 mmHg 90%
    21:00 +9°C° 0 mm 2 m/s 766 mmHg 90%
    22:00 +8°C° 0 mm 2 m/s 766 mmHg 91%
    23:00 +8°C° 0 mm 2 m/s 766 mmHg 92%
    Mostrar mais